Location: Ottawa
(45.4167°N, 75.7000°W)
Time: 18:03:30
(UTC-05:00)

N. Korean satellite - Pass Details

Date: 09 October 2017
Orbit: 461 x 513 km, 97.2° (Epoch: 11 December)

Event Time Altitude Azimuth Distance (km) Brightness Sun altitude
Rises 19:50:18 0° 197° (SSW) 2,566 10.4 -15.3°
Reaches altitude 10° 19:52:43 10° 213° (SSW) 1,679 9.6 -15.7°
Maximum altitude 19:55:34 22° 266° (W) 1,115 9.3 -16.2°
Drops below altitude 10° 19:58:25 10° 318° (NW) 1,667 10.0 -16.7°
Sets 20:00:49 0° 334° (NNW) 2,542 10.7 -17.1°
